Other Public Products
Issued by NWS Charleston, SC

Current Version | Previous Version | Graphics & Text | Print | Product List | Glossary On
Versions: 1 2 3 4 5 6 7 8 9 10 11 12 13 14 15 16 17 18 19 20 21 22 23 24 25 26 27 28 29 30 31 32 33 34 35 36 37 38 39 40 41 42 43 44 45 46 47 48 49 50
000 FPUS82 KCHS 280027 OPUCHS TEST...KCHS/KSAV Gateway Observations...TEST National Weather Service Charleston SC 800 PM EDT THU APR 27 2017 NOTE: "fair" indicates few or no clouds below 12,000 feet with no significant weather and/or obstructions to visibility. SCZ050-WAZ558-NCZ071-TXZ119-213-PAZ071-DCZ001-FLZ074-172-MI076- NYZ176-178-MAZ016-IL014-TNZ027-NJZ106-GAZ044-MD014-280100- ...Gateway Observations for Charleston International... CITY SKY/WX TMP DP RH WIND PRES REMARKS Chas Airport CLOUDY 76 64 66 S14 29.87F 6HR MIN TEMP: 76; 6HR MAX TEMP: 85; Seattle PTSUNNY 54 38 54 CALM 30.08F 6HR MIN TEMP: 48; 6HR MAX TEMP: 56; 6HR PCP: 0.04; Charlotte CLOUDY 73 65 75 S6 29.85S 6HR MIN TEMP: 73; 6HR MAX TEMP: 75; 6HR PCP: TRACE; Dallas DFW MOSUNNY 76 50 40 S17 29.58F 6HR MIN TEMP: 70; 6HR MAX TEMP: 77; Dallas Love PTSUNNY 76 51 41 SE17G26 29.60F 6HR MIN TEMP: 70; 6HR MAX TEMP: 76; Philladelphia MOCLDY 72 62 71 SE6 29.81R 6HR MIN TEMP: 72; 6HR MAX TEMP: 81; Wash National CLOUDY 79 60 52 S14 29.78R 6HR MIN TEMP: 76; 6HR MAX TEMP: 83; Baltimore MOCLDY 74 58 57 SE10 29.77R 6HR MIN TEMP: 74; 6HR MAX TEMP: 80; Miami PTCLDY 81 74 79 SE12G18 29.93R 6HR MIN TEMP: 81; 6HR MAX TEMP: 89; Detroit CLOUDY 56 43 61 W29 29.70R 6HR MIN TEMP: 56; 6HR MAX TEMP: 71; Newark DRZL/FOG 59 57 93 SE9 29.88S VSB 1 6HR MIN TEMP: 59; 6HR MAX TEMP: 69; 6HR PCP: TRACE; Laguardia CLOUDY 62 58 86 SE9 29.88S FOG 6HR MIN TEMP: 62; 6HR MAX TEMP: 69; J F K DRZL/FOG 59 59 100 E12 29.90S VSB 3/4 6HR MIN TEMP: 59; 6HR MAX TEMP: 65; 6HR PCP: TRACE; Boston Logan CLOUDY 53 52 96 E9 29.94R 6HR MIN TEMP: 50; 6HR MAX TEMP: 58; Ft. Lauderdale PTCLDY 81 74 79 S14 29.92R 6HR MIN TEMP: 81; 6HR MAX TEMP: 87; Chicago O`Hare CLOUDY 46 36 68 SW16G25 29.74R 6HR MIN TEMP: 45; 6HR MAX TEMP: 46; Chicago Midway CLOUDY 47 38 71 W16G23 29.75R 6HR MIN TEMP: 46; 6HR MAX TEMP: 48; Houston Bush PTSUNNY 76 47 35 SE12 29.69S 6HR MIN TEMP: 74; 6HR MAX TEMP: 81; Houston Hobby MOSUNNY 74 60 61 E9 29.69S 6HR MIN TEMP: 73; 6HR MAX TEMP: 79; Nashville PTCLDY 67 50 54 W3 29.83F 6HR MIN TEMP: 66; 6HR MAX TEMP: 71; Atlanta PTCLDY 76 69 79 S6 29.83R 6HR MIN TEMP: 73; 6HR MAX TEMP: 80; $$ GAZ044-118-TXZ119-213-NCZ071-DCZ001-MDZ014-506-PAZ021-071-NJZ106- NYZ176-178-MAZ106-OHZ011-021-055-MIZ076-KYZ091-ILZ014-INZ047- MNZ060-ONZ431-280100- ...Gateway Observations for Savannah International... CITY SKY/WX TMP DP RH WIND PRES REMARKS Savannah Arpt CLOUDY 79 62 56 S13 29.87 6HR MIN TEMP: 79; 6HR MAX TEMP: 90; Atlanta PTCLDY 76 69 79 S6 29.83R 6HR MIN TEMP: 73; 6HR MAX TEMP: 80; Charlotte CLOUDY 73 65 75 S6 29.85S 6HR MIN TEMP: 73; 6HR MAX TEMP: 75; 6HR PCP: TRACE; Dallas DFW MOSUNNY 76 50 40 S17 29.58F 6HR MIN TEMP: 70; 6HR MAX TEMP: 77; Houston Bush PTSUNNY 76 47 35 SE12 29.69S 6HR MIN TEMP: 74; 6HR MAX TEMP: 81; Wash National CLOUDY 79 60 52 S14 29.78R 6HR MIN TEMP: 76; 6HR MAX TEMP: 83; Wash Dulles CLOUDY 77 58 51 S14 29.77R 6HR MIN TEMP: 77; 6HR MAX TEMP: 82; Baltimore MOCLDY 74 58 57 SE10 29.77R 6HR MIN TEMP: 74; 6HR MAX TEMP: 80; Philadelphia MOCLDY 72 62 71 SE6 29.81R 6HR MIN TEMP: 72; 6HR MAX TEMP: 81; Newark DRZL/FOG 59 57 93 SE9 29.88S VSB 1 6HR MIN TEMP: 59; 6HR MAX TEMP: 69; 6HR PCP: TRACE; Laguardia CLOUDY 62 58 86 SE9 29.88S FOG 6HR MIN TEMP: 62; 6HR MAX TEMP: 69; J F K DRZL/FOG 59 59 100 E12 29.90S VSB 3/4 6HR MIN TEMP: 59; 6HR MAX TEMP: 65; 6HR PCP: TRACE; Boston CLOUDY 53 52 96 E9 29.94R 6HR MIN TEMP: 50; 6HR MAX TEMP: 58; Pittsburg LGT RAIN 71 60 68 W9 29.70R 6HR MIN TEMP: 71; 6HR MAX TEMP: 81; 6HR PCP: 0.04; Akron PTCLDY 67 51 56 W14G22 29.71R 6HR MIN TEMP: 67; 6HR MAX TEMP: 78; 6HR PCP: 0.05; Cleveland PTCLDY 65 46 50 W15 29.72R 6HR MIN TEMP: 65; 6HR MAX TEMP: 77; 6HR PCP: TRACE; Cincinnati MOCLDY 59 47 64 W9 29.82R 6HR MIN TEMP: 59; 6HR MAX TEMP: 67; Columbus CLEAR 61 46 58 W14 29.79R Detroit CLOUDY 56 43 61 W29 29.70R 6HR MIN TEMP: 56; 6HR MAX TEMP: 71; Chicago O`Hare CLOUDY 46 36 68 SW16G25 29.74R 6HR MIN TEMP: 45; 6HR MAX TEMP: 46; Minneapolis CLOUDY 34 24 67 NW13 29.69R WCI 25 6HR MIN TEMP: 34; 6HR MAX TEMP: 36; Indianapolis MOCLDY 53 44 71 SW13 29.81R 6HR MIN TEMP: 53; 6HR MAX TEMP: 57; Toronto Canada LGT RAIN 63 61 94 SW3 29.60 $$

USA.gov is the U.S. government's official web portal to all federal, state and local government web resources and services.